Tracking 29606 objects as of 18-Sep-2024
HD Live streaming from Space Station
objects crossing your sky now

FENGYUN 1C DEB

Track FENGYUN 1C DEB now!
10-day predictions


NORAD ID: 29895
Int'l Code: 1999-025GR
Perigee: 660.5 km
Apogee: 1,142.6 km
Inclination: 99.9 °
Period: 102.9 minutes
Semi major axis: 7272 km
RCS: 0.0261 m2 (small)
Launch date: May 10, 1999
Source: People's Republic of China (PRC)
Launch site: Taiyaun Space Center, China (TSC)

Note: This is SATELLITE DEBRIS
Your satellite tracking list
Your tracking list is empty




NASA's NSSDC Master Catalog

Two Line Element Set (TLE):
1 29895U 99025GR  24262.11780542  .00017772  00000-0  75344-2 0  9991
2 29895  99.8989 323.8504 0331461 125.3272 301.2348 13.99834839892122
Source of the keplerian elements: AFSPC